Lexington Weather

Lexington, Massachusetts, USA

54°F
12/10/2019 4:10pm 
  • Lexington Conditions: Light rain, Overcast
  • Temperature: 54.1°F / 12.3°CColder 0.9°F than last hour.
  • Dew Point: 52.5°FDecreased 0.6°Fsince last hour.
  • Relative Humidity: 94%Increased 1.0% since last hour.
  • Wind: Wind from WSW WSW 2 mph, 10-min avg: 4 mph, gust: 10 mph
  • Barometer: 29.69 in Steady
  • Visibility: 10 miles
  • Rain Today: 0.04 in
  •   

Regional Weather Roundup
for Boston / Norton, MA

        
000
ASUS41 KBOX 082101
RWRBOX

REGIONAL WEATHER ROUNDUP
NATIONAL WEATHER SERVICE BOSTON/NORTON MA
400 PM EST SUN DEC 08 2019

NOTE:  "FAIR" INDICATES FEW OR NO CLOUDS BELOW 12,000 FEET WITH NO 
SIGNIFICANT WEATHER AND/OR OBSTRUCTIONS TO VISIBILITY.

MAZALL-082200-
EASTERN MASSACHUSETTS
  
CITY           SKY/WX    TMP DP  RH WIND       PRES   REMARKS
BOSTON         CLOUDY    36  20  52 S13       30.45R WCI  27          
BEVERLY        FAIR      33  13  43 S7        30.43S WCI  27          
LAWRENCE       FAIR      32   9  38 S5        30.44R WCI  27          
BEDFORD        MOCLDY    33   8  35 S8        30.42S WCI  26          
BLUE HILL        N/A     31  19  61 S15       30.40S WCI  20          
NORWOOD        FAIR      36  19  50 S8        30.44S WCI  30          
MARSHFIELD     NOT AVBL                                               
PLYMOUTH       FAIR      35  25  66 SW10      30.46R WCI  27          
TAUNTON        FAIR      36  24  62 S3        30.46S                  
NEW BEDFORD    FAIR      36  26  67 S7        30.46S WCI  30          
$$

MAZALL-082200-
CAPE COD AND THE ISLANDS
  
CITY           SKY/WX    TMP DP  RH WIND       PRES   REMARKS
FALMOUTH       CLEAR     34  25  69 SW12      30.47S WCI  25          
HYANNIS        FAIR      36  25  64 S10       30.47R WCI  28          
CHATHAM        FAIR      34  23  64 SW9G18    30.50R WCI  27          
PROVINCETOWN   FAIR      35  25  66 SW16      30.47S WCI  25          
NANTUCKET      FAIR      35  25  66 SW12      30.50S WCI  27          
MARTHAS VNYRD  FAIR      37  26  64 S15G21    30.48S WCI  28          
$$
 
MAZALL-082200-
CENTRAL AND WESTERN MASSACHUSETTS
  
CITY           SKY/WX    TMP DP  RH WIND       PRES   REMARKS
WORCESTER      FAIR      28  11  48 S10       30.39R WCI  19          
FITCHBURG      FAIR      32   6  33 S8        30.42R WCI  25          
ORANGE         FAIR      30  10  43 S8        30.40S WCI  22          
SPRINGFIELD    NOT AVBL                                               
WESTFIELD      FAIR      31  14  49 S9        30.40F WCI  23          
NORTH ADAMS    FAIR      32  12  43 NE8       30.34S WCI  25          
PITTSFIELD     FAIR      31  12  45 S9        30.32R WCI  23          
$$
 
RIZALL-082200-
RHODE ISLAND
  
CITY           SKY/WX    TMP DP  RH WIND       PRES   REMARKS
PROVIDENCE     FAIR      35  25  66 SW8       30.46S WCI  29          
NEWPORT        MOCLDY    39  26  59 S9        30.45S                  
BLOCK ISLAND   FAIR      39  27  62 SW15      30.47S WCI  31          
SMITHFIELD     FAIR      33  21  61 VRB5      30.43S WCI  29          
WESTERLY       FAIR      39  27  62 SW10      30.47S                  
$$
 
CTZALL-082200-
CONNECTICUT
  
CITY           SKY/WX    TMP DP  RH WIND       PRES   REMARKS
BRADLEY INTL   MOCLDY    37  18  46 S13       30.43S WCI  29          
HARTFORD       FAIR      33  18  53 S8        30.45F WCI  26          
BRIDGEPORT     FAIR      38  24  57 S13       30.45F WCI  30          
DANBURY        FAIR      34  21  59 S3        30.42F                  
GROTON         FAIR      37  27  67 SW13      30.47R WCI  29          
NEW HAVEN      FAIR      39  24  55 S9        30.45F                  
CHESTER        FAIR      34  18  51 S6        30.45S WCI  29          
MERIDEN        FAIR      33  20  58 SE5       30.45F WCI  29          
WILLIMANTIC    FAIR      32  13  45 SW9       30.47R WCI  24          
OXFORD         FAIR      31  21  66 S10       30.41F WCI  22          
$$

MEZ002-015-021-024-NHZ003-005-008-011-012-014-VTZ005-008-082200-
NORTHERN NEW ENGLAND
  
CITY           SKY/WX    TMP DP  RH WIND       PRES   REMARKS
PORTLAND ME    CLOUDY    33  11  39 SW6       30.40F WCI  28          
BANGOR ME      FAIR      31  20  63 S7        30.35F WCI  24          
CONCORD NH     FAIR      30   8  39 SE7       30.39R WCI  23          
MANCHESTER NH  CLOUDY    32   8  36 S9        30.39S WCI  24          
NASHUA NH      FAIR      31  10  41 CALM      30.42R                  
PORTSMOUTH NH  MOCLDY    30   5  34 S3        30.40F                  
JAFFREY NH     FAIR      27  32 100 S8        30.35F WCI  19          
KEENE NH       FAIR      29  15  56 S7        30.39R WCI  22          
BURLINGTON VT  CLOUDY    31  13  47 S23G36    30.18F WCI  18          
MT. WASHINGTON NOT AVBL                                               
$$

NYZ052-076-082200-
EASTERN NEW YORK
  
CITY           SKY/WX    TMP DP  RH WIND       PRES   REMARKS
ALBANY         CLOUDY    33  17  51 S14G24    30.32F WCI  23          
NEW YORK CITY  MOCLDY    41  25  53 S16       30.43F                  
$$
 
ANZALL-082200-
MARINE OBSERVATIONS
  
STATION/POSITION TIME  TEMP    WIND        PRES    VSBY  WAVE
                       AIR SEA DIR/SP/G                  HT/PER
                 (UTC) (F)     (DEG/KT/KT) (MB)    (MI)  (FT/S)
BOSTON BUOY      1950   36 47  190/ 12/ 16 1030.5          1/ 3
BUZZARDS BAY     2000   38     210/ 17/ 20 1031.9F
NANTUCKET SOUND  2000      44              1032.4
MASS BAY-STELLWA 2004   36 46  240/ 16/ 19 1029.1F  1 7/8  2/ 3
ISLE OF SHOALS   2000   34     210/ 15/ 17 1029.8S
S OF BLOCK IS    2030      52                N/A           2/ 3
$$

......................KEY.........................
  SKY/WX - SKY CONDITION/PRESENT WEATHER
  TMP    - TEMPERATURE IN FAHRENHEIT
  DWPT   - DEWPOINT IN FAHRENHEIT
  RH     - RELATIVE HUMIDITY IN PERCENT
  WIND   - DIRECTION AND SPEED IN MPH
  PRES   - MEAN SEA LEVEL PRESSURE IN INCHES OF HG
  WCI    - WIND CHILL INDEX
  VSB    - VISIBILITY IN MILES
  HX     - HEAT INDEX
  TC     - TEMPERATURE IN CELSIUS
  VRB    - VARIABLE WIND DIRECTION
  N/A    - NOT AVAILABLE
  
      

Other recent Regional Weather Roundups

Tue Dec 10, 4:01pm

Tue Dec 10, 3:10pm

Tue Dec 10, 3:01pm

Tue Dec 10, 2:10pm

Tue Dec 10, 2:01pm

Tue Dec 10, 1:10pm

Tue Dec 10, 1:00pm

Tue Dec 10, 12:10pm

Tue Dec 10, 12:00pm

Tue Dec 10, 11:10am

Tue Dec 10, 11:00am

Tue Dec 10, 10:10am

Tue Dec 10, 10:00am

Tue Dec 10, 9:10am

Tue Dec 10, 9:01am

Tue Dec 10, 8:10am

Tue Dec 10, 8:00am

Tue Dec 10, 7:10am

Tue Dec 10, 7:00am

Tue Dec 10, 6:10am

Tue Dec 10, 6:00am

Tue Dec 10, 5:10am

Tue Dec 10, 5:00am

Tue Dec 10, 4:10am

Tue Dec 10, 4:00am

Tue Dec 10, 3:10am

Tue Dec 10, 3:00am

Tue Dec 10, 2:10am

Tue Dec 10, 2:01am

Tue Dec 10, 1:10am

Tue Dec 10, 1:00am

Tue Dec 10, 12:10am

Tue Dec 10, 12:01am

Mon Dec 9, 11:10pm

Mon Dec 9, 11:01pm

Mon Dec 9, 10:10pm

Mon Dec 9, 10:00pm

Mon Dec 9, 9:10pm

Mon Dec 9, 9:01pm

Mon Dec 9, 8:10pm

Mon Dec 9, 8:01pm

Mon Dec 9, 7:10pm

Mon Dec 9, 7:00pm

Mon Dec 9, 6:10pm

Mon Dec 9, 6:00pm

Mon Dec 9, 5:10pm

Mon Dec 9, 5:01pm

Mon Dec 9, 4:10pm

Mon Dec 9, 4:01pm

Mon Dec 9, 3:10pm

Mon Dec 9, 3:01pm

Mon Dec 9, 2:10pm

Mon Dec 9, 2:00pm

Mon Dec 9, 1:10pm

Mon Dec 9, 1:00pm

Mon Dec 9, 12:10pm

Mon Dec 9, 12:00pm

Mon Dec 9, 11:10am

Mon Dec 9, 11:00am

Mon Dec 9, 10:10am

Mon Dec 9, 10:00am

Mon Dec 9, 9:10am

Mon Dec 9, 9:00am

Mon Dec 9, 8:10am

Mon Dec 9, 8:00am

Mon Dec 9, 7:10am

Mon Dec 9, 7:00am

Mon Dec 9, 6:10am

Mon Dec 9, 6:00am

Mon Dec 9, 5:10am

Mon Dec 9, 5:00am

Mon Dec 9, 4:10am

Mon Dec 9, 4:00am

Mon Dec 9, 3:10am

Mon Dec 9, 3:00am

Mon Dec 9, 2:10am

Mon Dec 9, 2:00am

Mon Dec 9, 1:10am

Mon Dec 9, 1:00am

Mon Dec 9, 12:10am

Mon Dec 9, 12:00am

Sun Dec 8, 11:10pm

Sun Dec 8, 11:00pm

Sun Dec 8, 10:10pm

Sun Dec 8, 10:01pm

Sun Dec 8, 9:10pm

Sun Dec 8, 9:01pm

Sun Dec 8, 8:10pm

Sun Dec 8, 8:00pm

Sun Dec 8, 7:10pm

Sun Dec 8, 7:00pm

Sun Dec 8, 6:10pm

Sun Dec 8, 6:01pm

Sun Dec 8, 5:10pm

Sun Dec 8, 5:00pm

Sun Dec 8, 4:10pm

Sun Dec 8, 3:10pm

Sun Dec 8, 3:01pm

Sun Dec 8, 2:10pm

Sun Dec 8, 2:01pm

Sun Dec 8, 1:10pm

Sun Dec 8, 1:00pm

Sun Dec 8, 12:10pm

Sun Dec 8, 12:01pm

Sun Dec 8, 11:10am

Sun Dec 8, 11:00am

Sun Dec 8, 10:10am

Sun Dec 8, 10:01am

Sun Dec 8, 9:10am

Sun Dec 8, 9:00am

Sun Dec 8, 8:10am

Sun Dec 8, 8:00am

Sun Dec 8, 7:10am

Sun Dec 8, 7:00am

Sun Dec 8, 6:10am

Sun Dec 8, 6:00am

Sun Dec 8, 5:10am

Sun Dec 8, 5:00am

Sun Dec 8, 4:10am

Sun Dec 8, 4:00am

Sun Dec 8, 3:10am

Sun Dec 8, 3:00am

Sun Dec 8, 2:10am

Sun Dec 8, 2:00am

Sun Dec 8, 1:10am

Sun Dec 8, 1:00am

Sun Dec 8, 12:10am

Sun Dec 8, 12:01am

Sat Dec 7, 11:10pm

Sat Dec 7, 11:00pm

Sat Dec 7, 10:10pm

Sat Dec 7, 10:00pm

Sat Dec 7, 9:10pm

Sat Dec 7, 9:00pm

Sat Dec 7, 8:10pm

Sat Dec 7, 8:00pm

Sat Dec 7, 7:10pm

Sat Dec 7, 7:00pm

Sat Dec 7, 6:10pm

Sat Dec 7, 6:00pm

Sat Dec 7, 5:10pm

Sat Dec 7, 5:00pm

Sat Dec 7, 4:10pm

Meta data:

ID: d21d64f7-0a24-404e-bed5-601a24eddc2e
Link: https://api.weather.gov/products/d21d64f7-0a24-404e-bed5-601a24eddc2e